Tracking 31027 objects as of 19-Jul-2025
HD Live streaming from Space Station
objects crossing your sky now

STARLINK-3511

Track STARLINK-3511 now!
10-day predictions
STARLINK-3511 is classified as:


NORAD ID: 51752
Int'l Code: 2022-016AQ
Perigee: 546.1 km
Apogee: 547.7 km
Inclination: 53.2 °
Period: 95.4 minutes
Semi major axis: 6917 km
RCS: Unknown
Launch date: February 21, 2022
Source: United States (US)
Launch site: AIR FORCE EASTERN TEST RANGE (AFETR)
Your satellite tracking list
ICEYE-X27
Track 1 satellite(s)




NASA's NSSDC Master Catalog

Two Line Element Set (TLE):
1 51752U 22016AQ  25199.59838618 -.00000428  00000-0 -88064-5 0  9992
2 51752  53.2173 279.9320 0001092  82.6514 277.4603 15.08834706189484
Source of the keplerian elements: AFSPC